TimeCDT,TemperatureF,Dew PointF,Humidity,Sea Level PressureIn,VisibilityMPH,Wind Direction,Wind SpeedMPH,Gust SpeedMPH,PrecipitationIn,Events,Conditions,WindDirDegrees,DateUTC
12:53 AM,71.1,66.0,84,30.08,8.0,ENE,3.5,-,N/A,,Clear,70,2013-08-23 05:53:00
1:53 AM,70.0,66.9,90,30.07,8.0,East,3.5,-,N/A,,Clear,100,2013-08-23 06:53:00
2:53 AM,70.0,66.9,90,30.07,7.0,East,3.5,-,N/A,,Clear,90,2013-08-23 07:53:00
3:53 AM,70.0,66.9,90,30.08,5.0,East,3.5,-,N/A,,Clear,100,2013-08-23 08:53:00
4:53 AM,69.1,66.9,93,30.08,3.0,East,3.5,-,N/A,,Clear,90,2013-08-23 09:53:00
5:29 AM,69.8,66.2,88,30.10,2.5,East,3.5,-,N/A,,Clear,80,2013-08-23 10:29:00
5:53 AM,69.1,66.9,93,30.08,2.0,East,3.5,-,N/A,,Clear,90,2013-08-23 10:53:00
6:40 AM,69.8,66.2,88,30.10,1.2,East,3.5,-,N/A,,Partly Cloudy,100,2013-08-23 11:40:00
6:51 AM,69.8,66.2,88,30.11,1.0,East,3.5,-,N/A,,Mist,100,2013-08-23 11:51:00
6:53 AM,69.1,66.9,93,30.09,1.0,Calm,Calm,-,N/A,,Mist,0,2013-08-23 11:53:00
7:48 AM,69.8,68.0,94,30.11,0.5,SE,5.8,-,N/A,Fog,Fog,130,2013-08-23 12:48:00
7:53 AM,70.0,69.1,97,30.09,0.2,SE,5.8,-,N/A,Fog,Fog,130,2013-08-23 12:53:00
8:53 AM,71.1,70.0,96,30.10,1.2,SSE,4.6,-,N/A,,Overcast,160,2013-08-23 13:53:00
9:02 AM,71.6,69.8,94,30.12,2.5,SSE,5.8,-,N/A,,Overcast,160,2013-08-23 14:02:00
9:12 AM,71.6,69.8,94,30.12,3.0,SSE,6.9,-,N/A,,Overcast,150,2013-08-23 14:12:00
9:39 AM,73.4,69.8,88,30.12,6.0,SSE,5.8,-,N/A,,Scattered Clouds,150,2013-08-23 14:39:00
9:53 AM,75.9,70.0,82,30.10,6.0,SE,5.8,-,N/A,,Haze,130,2013-08-23 14:53:00
10:53 AM,81.0,71.1,72,30.10,9.0,Variable,4.6,-,N/A,,Clear,0,2013-08-23 15:53:00
11:53 AM,84.0,71.1,65,30.09,10.0,East,4.6,-,N/A,,Clear,90,2013-08-23 16:53:00
12:53 PM,86.0,70.0,59,30.07,10.0,ESE,3.5,-,N/A,,Scattered Clouds,120,2013-08-23 17:53:00
1:53 PM,88.0,66.0,48,30.05,10.0,East,6.9,-,N/A,,Partly Cloudy,90,2013-08-23 18:53:00
2:53 PM,90.0,63.0,40,30.04,10.0,SSE,6.9,-,N/A,,Clear,160,2013-08-23 19:53:00
3:53 PM,91.9,66.0,42,30.02,10.0,SSE,6.9,-,N/A,,Partly Cloudy,150,2013-08-23 20:53:00
4:53 PM,90.0,66.0,45,30.01,10.0,SE,6.9,-,N/A,,Mostly Cloudy,140,2013-08-23 21:53:00
5:53 PM,89.1,64.0,43,30.01,10.0,SSE,6.9,-,N/A,,Clear,160,2013-08-23 22:53:00
6:53 PM,87.1,64.0,46,30.01,10.0,South,4.6,-,N/A,,Clear,180,2013-08-23 23:53:00
7:53 PM,82.9,64.0,53,30.01,10.0,SSE,4.6,-,N/A,,Clear,160,2013-08-24 00:53:00
8:53 PM,81.0,64.9,58,30.04,10.0,South,4.6,-,N/A,,Clear,170,2013-08-24 01:53:00
9:53 PM,80.1,64.9,60,30.04,10.0,SSE,4.6,-,N/A,,Clear,160,2013-08-24 02:53:00
10:53 PM,75.9,66.0,71,30.04,10.0,Calm,Calm,-,N/A,,Clear,0,2013-08-24 03:53:00
11:53 PM,75.0,66.0,73,30.05,10.0,ESE,4.6,-,N/A,,Clear,120,2013-08-24 04:53:00